Weather History for KAPC - May, 2013

Change the Weather History Date:

Monday, May 13, 2013

  Actual Average Record
Temperature  
Mean Temperature 62 °F 58 °F  
Max Temperature 78 °F 72 °F 89 °F (2014)
Min Temperature 46 °F 45 °F 37 °F (1999)
Degree Days  
Heating Degree Days 3    
Month to date heating degree days 31  
Since 1 July heating degree days 2775  
Cooling Degree Days 0    
Month to date cooling degree days 9  
Year to date cooling degree days 12  
Growing Degree Days 12 (Base 50)    
Moisture  
Dew Point 51 °F    
Average Humidity 72    
Maximum Humidity 93    
Minimum Humidity 50    
Precipitation  
Precipitation 0.00 in - 1.00 in (1941)
Month to date precipitation 0.05  
Year to date precipitation 1.75  
Since 1 July precipitation 9.54  
Sea Level Pressure  
Sea Level Pressure 30.00 in    
Wind  
Wind Speed 8 mph (SW)    
Max Wind Speed 17 mph    
Max Gust Speed 21 mph    
Visibility 10 miles    
Events      
T = Trace of Precipitation, MM = Missing Value Source: NWS Daily Summary

Daily Weather History Graph

Daily Weather History Graph

Search for Another Location

Airport or City:

Trip Planner

Search our weather history database for the weather conditions in past years. The results will help you decide how hot, cold, wet, or windy it might be!

Date:

Astronomy

May. 13, 2013 Rise Set
Actual Time 5:59 AM PDT 8:11 PM PDT
Civil Twilight 5:30 AM PDT 8:41 PM PDT
Nautical Twilight 4:54 AM PDT 9:17 PM PDT
Astronomical Twilight 4:14 AM PDT 9:57 PM PDT
Moon 8:50 AM PDT (5/13) 11:24 PM PDT (5/13)
Length of Visible Light 15h 11m
Length of Day
14h 12m
Waxing Crescent, 13% of the Moon is Illuminated
May 13
Waxing Crescent
May 17
First Quarter
May 24
Full
May 31
Last Quarter
Jun 8
New

Hourly Weather History & Observations

Time (PDT) Temp. Dew Point Humidity Pressure Visibility Wind Dir Wind Speed Gust Speed Precip Events Conditions
12:54 AM 54.0 °F 48.9 °F 83% 30.02 in 10.0 mi SW 3.5 mph - N/A   Clear
1:54 AM 53.1 °F 48.9 °F 86% 30.01 in 10.0 mi SW 4.6 mph - N/A   Partly Cloudy
2:54 AM 50.0 °F 46.9 °F 89% 30.01 in 10.0 mi WSW 5.8 mph - N/A   Clear
3:02 AM 50.0 °F 46.4 °F 87% 30.04 in 10.0 mi WSW 4.6 mph - N/A   Scattered Clouds
3:11 AM 51.8 °F 48.2 °F 88% 30.04 in 10.0 mi WSW 4.6 mph - N/A   Mostly Cloudy
3:54 AM 52.0 °F 48.0 °F 86% 30.01 in 10.0 mi West 4.6 mph - N/A   Overcast
4:54 AM 50.0 °F 46.9 °F 89% 30.02 in 10.0 mi NW 3.5 mph - N/A   Mostly Cloudy
5:54 AM 50.0 °F 46.9 °F 89% 30.03 in 10.0 mi Calm Calm - N/A   Scattered Clouds
6:54 AM 48.9 °F 46.9 °F 93% 30.04 in 10.0 mi Calm Calm - N/A   Clear
7:54 AM 55.9 °F 51.1 °F 84% 30.05 in 10.0 mi West 4.6 mph - N/A   Clear
8:54 AM 60.1 °F 51.1 °F 72% 30.06 in 10.0 mi SW 6.9 mph - N/A   Clear
9:54 AM 62.1 °F 51.1 °F 67% 30.07 in 10.0 mi SW 8.1 mph - N/A   Clear
10:54 AM 64.9 °F 53.1 °F 65% 30.06 in 10.0 mi SSW 9.2 mph - N/A   Clear
11:54 AM 70.0 °F 54.0 °F 57% 30.06 in 10.0 mi SW 6.9 mph - N/A   Clear
1:54 PM 75.0 °F 57.0 °F 53% 30.01 in 10.0 mi SSW 11.5 mph - N/A   Clear
2:54 PM 77.0 °F 57.9 °F 52% 30.00 in 10.0 mi SSW 12.7 mph - N/A   Clear
3:54 PM 75.9 °F 57.0 °F 52% 29.97 in 10.0 mi SSW 12.7 mph - N/A   Clear
5:54 PM 72.0 °F 55.9 °F 57% 29.93 in 10.0 mi South 15.0 mph - N/A   Clear
6:54 PM 71.1 °F 55.9 °F 59% 29.91 in 10.0 mi South 12.7 mph - N/A   Clear
7:54 PM 68.0 °F 54.0 °F 61% 29.91 in 10.0 mi South 10.4 mph - N/A   Clear
8:54 PM 63.0 °F 53.1 °F 70% 29.92 in 10.0 mi SW 8.1 mph - N/A   Clear
9:54 PM 60.1 °F 53.1 °F 78% 29.93 in 10.0 mi WSW 3.5 mph - N/A   Clear
10:54 PM 57.9 °F 50.0 °F 75% 29.93 in 10.0 mi SW 6.9 mph - N/A   Clear
11:54 PM 57.0 °F 48.9 °F 74% 29.92 in 10.0 mi SSW 5.8 mph - N/A   Clear